This demonstration page uses our WeatherBlox Daily Observations layout. Learn more.

Left ArrowRight Arrow

Hourly Observations for March 10, 2018

Temp ( °F °C ) Dew Point ( °F °C ) Humidity (%) Winds ( mph kmh ) Pressure ( in mb ) Visibility ( mi km ) Precip ( " mm )
12:53 am 00:53 Clear 47 8.3 45 7.2 93 93 NNW 3 6 29.96 1015 10 16 0.00 0.00
1:53 am 01:53 Clear 48 8.9 44 6.7 86 86 NNW 6 9 29.95 1014 10 16 0.00 0.00
2:53 am 02:53 Clear 46 7.8 43 6.1 89 89 Calm 29.94 1014 10 16 0.00 0.00
3:53 am 03:53 Clear 47 8.3 43 6.1 86 86 NW 6 9 29.93 1014 10 16 0.00 0.00
4:53 am 04:53 Clear 48 8.9 43 6.1 83 83 NW 6 9 29.91 1013 10 16 0.00 0.00
5:53 am 05:53 Clear 47 8.3 42 5.6 83 83 NW 6 9 29.91 1013 10 16 0.00 0.00
6:53 am 06:53 Sunny 47 8.3 41 5 80 80 NNW 5 7 29.93 1014 10 16 0.00 0.00
7:53 am 07:53 Sunny 49 9.4 42 5.6 77 77 Calm 29.93 1014 10 16 0.00 0.00
8:53 am 08:53 Sunny 54 12.2 44 6.7 69 69 Calm 29.93 1014 10 16 0.00 0.00
9:53 am 09:53 Sunny 58 14.4 41 5 53 53 N 6 9 29.92 1013 10 16 0.00 0.00
10:53 am 10:53 Mostly Sunny 61 16.1 40 4.4 46 46 N 7 11 29.92 1013 10 16 0.00 0.00
11:53 am 11:53 Sunny 66 18.9 41 5 40 40 ENE 3 6 29.91 1013 10 16 0.00 0.00
12:53 pm 12:53 Sunny 67 19.4 41 5 39 39 Calm 29.90 1012 10 16 0.00 0.00
1:53 pm 13:53 Sunny 67 19.4 44 6.7 44 44 ESE 6 9 29.88 1012 10 16 0.00 0.00
2:53 pm 14:53 Sunny 68 20 43 6.1 40 40 SSE 12 19 29.88 1012 10 16 0.00 0.00
3:53 pm 15:53 Sunny 68 20 41 5 38 38 S 12 19 29.88 1012 10 16 0.00 0.00
4:53 pm 16:53 Sunny 67 19.4 43 6.1 42 42 S 13 20 29.88 1012 10 16 0.00 0.00
5:53 pm 17:53 Sunny 63 17.2 41 5 45 45 SSW 8 13 29.90 1013 10 16 0.00 0.00
6:53 pm 18:53 Clear 60 15.6 44 6.7 56 56 SSW 5 7 29.91 1013 10 16 0.00 0.00
7:53 pm 19:53 Clear 54 12.2 44 6.7 69 69 E 5 7 29.95 1014 10 16 0.00 0.00
8:53 pm 20:53 Clear 51 10.6 44 6.7 77 77 Calm 29.97 1015 10 16 0.00 0.00
9:53 pm 21:53 Clear 49 9.4 42 5.6 77 77 NE 3 6 29.98 1015 10 16 0.00 0.00
10:53 pm 22:53 Clear 48 8.9 42 5.6 80 80 N 3 6 29.99 1016 10 16 0.00 0.00
11:53 pm 23:53 Clear 47 8.3 42 5.6 83 83 NNW 3 6 30.00 1016 10 16 0.00 0.00

Powered by AerisWeather